Weather History for Salida, CO

Change the Weather History Date:

Friday, February 21, 2014

  Actual Average (KGUC) Record (KGUC)
Temperature  
Mean Temperature 33 °F -  
Max Temperature 41 °F 30 °F 46 °F (2007)
Min Temperature 25 °F 7 °F -7 °F (2009)
Degree Days  
Heating Degree Days 32    
Moisture  
Dew Point 5 °F    
Average Humidity 31    
Maximum Humidity 52    
Minimum Humidity 16    
Precipitation  
Precipitation 0.00 in - - ()
Sea Level Pressure  
Sea Level Pressure 30.03 in    
Wind  
Wind Speed 19 mph (WSW)    
Max Wind Speed 37 mph    
Max Gust Speed 50 mph    
Visibility 10 miles    
Events      
Averages and records for this station are not official NWS values.
T = Trace of Precipitation, MM = Missing Value Source: NWS Daily Summary

Daily Weather History Graph

Daily Weather History Graph

Search for Another Location

Airport:

Trip Planner

Search our weather history database for the weather conditions in past years. The results will help you decide how hot, cold, wet, or windy it might be!

Date:

Astronomy

Feb. 21, 2014 Rise Set
Actual Time 6:47 AM MST 5:48 PM MST
Civil Twilight 6:20 AM MST 6:15 PM MST
Nautical Twilight 5:49 AM MST 6:46 PM MST
Astronomical Twilight 5:18 AM MST 7:17 PM MST
Moon No Moon Rise 10:18 AM MST (2/21)
Length of Visible Light 11h 55m
Length of Day
11h 01m
Waning Gibbous, 60% of the Moon is Illuminated
Feb 21
Waning Gibbous
Feb 22
Last Quarter
Mar 1
New
Mar 8
First Quarter
Mar 16
Full

Hourly Weather History & Observations

Time (MST) Temp. Windchill Dew Point Humidity Pressure Visibility Wind Dir Wind Speed Gust Speed Precip Events Conditions
12:15 AM 27.0 °F 13.9 °F -1.1 °F 30% 30.07 in 10.0 mi WSW 18.4 mph 26.5 mph N/A   Clear
12:35 AM 27.0 °F 15.2 °F -1.1 °F 30% 30.06 in 10.0 mi SW 15.0 mph 28.8 mph N/A   Clear
12:55 AM 27.5 °F 16.3 °F -0.8 °F 30% 30.06 in 10.0 mi WSW 13.8 mph 24.2 mph N/A   Clear
1:15 AM 27.5 °F 16.8 °F -0.4 °F 30% 30.07 in 10.0 mi West 12.7 mph 25.3 mph N/A   Clear
1:35 AM 27.3 °F 17.7 °F -0.0 °F 31% 30.05 in 10.0 mi West 10.4 mph - N/A   Clear
1:55 AM 27.9 °F 16.3 °F 0.1 °F 30% 30.06 in 10.0 mi West 15.0 mph 24.2 mph N/A   Clear
2:15 AM 28.2 °F 19.5 °F 0.5 °F 30% 30.06 in 10.0 mi WNW 9.2 mph 24.2 mph N/A   Clear
2:35 AM 28.0 °F 15.7 °F 4.6 °F 37% 30.05 in 10.0 mi West 17.3 mph 27.6 mph N/A   Clear
2:55 AM 27.5 °F 15.4 °F 6.3 °F 41% 30.06 in 10.0 mi West 16.1 mph 21.9 mph N/A   Clear
3:15 AM 27.1 °F 16.4 °F 6.8 °F 42% 30.06 in 10.0 mi WNW 12.7 mph 23.0 mph N/A   Clear
3:35 AM 26.6 °F 16.2 °F 7.9 °F 45% 30.06 in 10.0 mi WNW 11.5 mph 20.7 mph N/A   Clear
3:55 AM 26.6 °F 13.1 °F 9.5 °F 49% 30.07 in 10.0 mi West 19.6 mph 26.5 mph N/A   Scattered Clouds
4:15 AM 26.4 °F 15.5 °F 10.8 °F 52% 30.07 in 10.0 mi West 12.7 mph 24.2 mph N/A   Scattered Clouds
4:35 AM 26.6 °F 12.7 °F 9.5 °F 49% 30.07 in 10.0 mi West 20.7 mph 33.4 mph N/A   Clear
4:55 AM 26.6 °F 11.4 °F 9.5 °F 49% 30.07 in 10.0 mi West 25.3 mph 34.5 mph N/A   Clear
5:15 AM 25.9 °F 12.1 °F 10.4 °F 52% 30.07 in 10.0 mi West 19.6 mph 24.2 mph N/A   Clear
5:35 AM 26.2 °F 13.0 °F 9.5 °F 49% 30.05 in 10.0 mi West 18.4 mph 24.2 mph N/A   Clear
5:55 AM 26.4 °F 14.0 °F 9.3 °F 49% 30.06 in 10.0 mi WNW 16.1 mph 23.0 mph N/A   Clear
6:15 AM 26.2 °F 14.2 °F 9.3 °F 49% 30.06 in 10.0 mi WNW 15.0 mph 21.9 mph N/A   Clear
6:35 AM 27.1 °F 17.5 °F 8.4 °F 45% 30.07 in 10.0 mi WNW 10.4 mph 19.6 mph N/A   Clear
6:55 AM 27.0 °F 18.0 °F 9.1 °F 47% 30.07 in 10.0 mi WNW 9.2 mph 16.1 mph N/A   Clear
7:15 AM 28.0 °F 16.1 °F 9.9 °F 47% 30.07 in 10.0 mi WNW 16.1 mph 23.0 mph N/A   Clear
7:35 AM 29.3 °F 20.2 °F 10.2 °F 45% 30.07 in 10.0 mi West 10.4 mph 20.7 mph N/A   Clear
7:55 AM 30.9 °F 19.8 °F 9.9 °F 41% 30.07 in 10.0 mi West 16.1 mph 23.0 mph N/A   Clear
8:15 AM 32.0 °F 19.5 °F 8.6 °F 38% 30.08 in 10.0 mi West 21.9 mph 27.6 mph N/A   Clear
8:35 AM 33.1 °F 23.9 °F 8.1 °F 35% 30.07 in 10.0 mi WSW 12.7 mph 23.0 mph N/A   Clear
8:55 AM 33.6 °F 23.7 °F 7.9 °F 34% 30.07 in 10.0 mi WSW 15.0 mph 36.8 mph N/A   Clear
9:15 AM 34.7 °F 24.3 °F 7.9 °F 33% 30.07 in 10.0 mi West 17.3 mph 28.8 mph N/A   Clear
9:35 AM 34.5 °F 21.5 °F 6.8 °F 31% 30.08 in 10.0 mi West 27.6 mph 35.7 mph N/A   Clear
9:55 AM 35.6 °F 24.0 °F 7.2 °F 31% 30.08 in 10.0 mi West 23.0 mph 34.5 mph N/A   Clear
10:15 AM 36.5 °F 24.7 °F 7.3 °F 30% 30.07 in 10.0 mi West 25.3 mph 33.4 mph N/A   Clear
10:35 AM 37.6 °F 26.9 °F 8.1 °F 29% 30.07 in 10.0 mi WSW 21.9 mph 32.2 mph N/A   Clear
10:55 AM 37.2 °F 26.4 °F 7.3 °F 29% 30.07 in 10.0 mi SW 21.9 mph 31.1 mph N/A   Clear
11:15 AM 36.7 °F 26.3 °F 7.3 °F 30% 30.07 in 10.0 mi SW 19.6 mph 32.2 mph N/A   Clear
11:35 AM 39.0 °F 28.0 °F 7.0 °F 27% 30.06 in 10.0 mi SW 25.3 mph 36.8 mph N/A   Clear
11:55 AM 40.1 °F 29.9 °F 7.7 °F 26% 30.04 in 10.0 mi SW 23.0 mph 33.4 mph N/A   Clear
12:15 PM 39.9 °F 28.0 °F 7.2 °F 26% 30.02 in 10.0 mi WSW 32.2 mph 42.6 mph N/A   Clear
12:35 PM 39.6 °F 27.9 °F 6.3 °F 25% 29.99 in 10.0 mi WSW 29.9 mph 42.6 mph N/A   Clear
12:55 PM 39.9 °F 28.0 °F 5.5 °F 24% 29.97 in 10.0 mi WSW 32.2 mph 48.3 mph N/A   Clear
1:15 PM 39.7 °F 27.0 °F 6.3 °F 25% 29.97 in 10.0 mi WSW 36.8 mph 47.2 mph N/A   Clear
1:35 PM 40.3 °F 28.0 °F 5.4 °F 24% 29.97 in 10.0 mi WSW 35.7 mph 46.0 mph N/A   Clear
1:55 PM 40.1 °F 27.7 °F 4.8 °F 23% 29.97 in 10.0 mi WSW 35.7 mph 46.0 mph N/A   Clear
2:15 PM 40.3 °F 28.5 °F 2.3 °F 21% 29.97 in 10.0 mi WSW 32.2 mph 49.5 mph N/A   Clear
2:35 PM 40.8 °F 29.0 °F 1.2 °F 19% 29.98 in 10.0 mi WSW 33.4 mph 47.2 mph N/A   Clear
2:55 PM 41.2 °F 30.3 °F -0.4 °F 18% 29.98 in 10.0 mi WSW 28.8 mph 44.9 mph N/A   Clear
3:15 PM 41.0 °F 28.8 °F -2.4 °F 16% 30.00 in 10.0 mi West 36.8 mph 41.4 mph N/A   Clear
3:35 PM 41.0 °F 30.0 °F -1.5 °F 17% 30.00 in 10.0 mi WSW 28.8 mph 41.4 mph N/A   Clear
3:55 PM 40.6 °F 29.8 °F -0.9 °F 17% 30.01 in 10.0 mi West 27.6 mph 40.3 mph N/A   Clear
4:15 PM 40.1 °F 29.2 °F -0.0 °F 19% 30.00 in 10.0 mi West 26.5 mph 38.0 mph N/A   Clear
4:35 PM 39.2 °F 27.4 °F 1.0 °F 20% 30.00 in 10.0 mi West 29.9 mph 38.0 mph N/A   Clear
4:55 PM 38.5 °F 27.5 °F 1.4 °F 21% 30.00 in 10.0 mi WSW 24.2 mph 33.4 mph N/A   Clear
5:15 PM 37.4 °F 26.9 °F 2.1 °F 23% 30.00 in 10.0 mi WSW 20.7 mph 31.1 mph N/A   Clear
5:35 PM 36.5 °F 25.7 °F 3.0 °F 25% 30.00 in 10.0 mi WSW 20.7 mph 27.6 mph N/A   Clear
5:55 PM 36.1 °F 25.5 °F 3.7 °F 26% 30.00 in 10.0 mi WSW 19.6 mph 29.9 mph N/A   Clear
6:15 PM 35.8 °F 24.5 °F 3.7 °F 26% 29.99 in 10.0 mi WSW 21.9 mph 31.1 mph N/A   Clear
6:35 PM 35.6 °F 24.5 °F 3.7 °F 26% 30.00 in 10.0 mi WSW 20.7 mph 31.1 mph N/A   Clear
6:55 PM 35.6 °F 24.8 °F 3.9 °F 26% 30.00 in 10.0 mi WSW 19.6 mph 27.6 mph N/A   Clear
7:15 PM 35.8 °F 25.1 °F 3.7 °F 26% 30.00 in 10.0 mi WSW 19.6 mph 28.8 mph N/A   Clear
7:35 PM 35.8 °F 25.1 °F 3.9 °F 26% 30.00 in 10.0 mi WSW 19.6 mph 27.6 mph N/A   Clear
7:55 PM 35.4 °F 24.0 °F 4.1 °F 27% 29.99 in 10.0 mi WSW 21.9 mph 28.8 mph N/A   Clear
8:15 PM 35.6 °F 24.8 °F 4.3 °F 27% 29.99 in 10.0 mi WSW 19.6 mph 31.1 mph N/A   Clear
8:35 PM 35.6 °F 23.4 °F 4.8 °F 28% 29.99 in 10.0 mi WSW 25.3 mph 29.9 mph N/A   Clear
8:55 PM 35.6 °F 24.2 °F 5.9 °F 29% 29.99 in 10.0 mi WSW 21.9 mph 32.2 mph N/A   Clear
9:15 PM 35.6 °F 24.0 °F 6.8 °F 30% 29.99 in 10.0 mi WSW 23.0 mph 32.2 mph N/A   Clear
9:35 PM 35.1 °F 23.8 °F 6.8 °F 31% 29.99 in 10.0 mi WSW 20.7 mph 28.8 mph N/A   Clear
9:55 PM 34.7 °F 22.8 °F 5.2 °F 29% 29.99 in 10.0 mi WSW 23.0 mph 28.8 mph N/A   Clear
10:15 PM 34.7 °F 23.4 °F 4.1 °F 28% 29.99 in 10.0 mi West 20.7 mph 28.8 mph N/A   Clear
10:35 PM 34.7 °F 23.1 °F 3.6 °F 27% 29.99 in 10.0 mi WSW 21.9 mph 29.9 mph N/A   Clear
10:55 PM 34.3 °F 22.3 °F 3.2 °F 27% 29.99 in 10.0 mi WSW 23.0 mph 29.9 mph N/A   Clear
11:15 PM 34.2 °F 22.3 °F 3.6 °F 28% 29.98 in 10.0 mi WSW 21.9 mph 32.2 mph N/A   Clear
11:35 PM 33.8 °F 23.2 °F 4.6 °F 29% 29.99 in 10.0 mi WSW 17.3 mph 25.3 mph N/A   Clear
11:55 PM 34.2 °F 23.3 °F 5.0 °F 29% 29.99 in 10.0 mi West 18.4 mph 26.5 mph N/A   Clear